timestamp,wind_dir_avg,wind_spd_avg,wind_spd_max_dir,wind_spd_gust,battery_voltage,lat,long
2021-05-12 00:04:00+00:00,177.0,2.43,179.0,2.74,13.05,47.59359,-54.27349
2021-05-12 00:14:01+00:00,164.0,3.14,168.0,3.35,12.65,47.59359,-54.27349
2021-05-12 00:24:01+00:00,180.0,2.39,177.0,2.95,12.65,47.59359,-54.27349
2021-05-12 00:34:01+00:00,191.0,3.65,185.0,4.2,12.65,47.59359,-54.27349
2021-05-12 00:44:01+00:00,191.0,3.22,191.0,3.81,12.65,47.59359,-54.27349
2021-05-12 00:54:01+00:00,230.0,2.25,230.0,3.0,12.65,47.59359,-54.27349
2021-05-12 01:04:01+00:00,270.0,1.84,269.0,2.34,12.65,47.59359,-54.27349
2021-05-12 01:14:00+00:00,263.0,2.68,271.0,4.13,12.57,47.59359,-54.27349
2021-05-12 01:24:00+00:00,270.0,3.26,265.0,4.33,12.57,47.59359,-54.27349
2021-05-12 01:34:00+00:00,265.0,3.66,269.0,4.02,12.57,47.59359,-54.27349
2021-05-12 01:44:00+00:00,271.0,2.09,270.0,2.25,12.57,47.59359,-54.27349
2021-05-12 01:54:00+00:00,280.0,2.33,288.0,3.33,12.57,47.59359,-54.27349
2021-05-12 02:04:00+00:00,270.0,1.96,272.0,2.44,12.57,47.59359,-54.27349
2021-05-12 02:14:01+00:00,245.0,1.42,248.0,1.62,12.57,47.59359,-54.27349
2021-05-12 02:24:01+00:00,245.0,1.71,246.0,1.97,12.57,47.59359,-54.27349
2021-05-12 02:34:01+00:00,255.0,2.25,268.0,3.57,12.57,47.59359,-54.27349
2021-05-12 02:44:01+00:00,232.0,1.87,233.0,2.66,12.57,47.59359,-54.27349
2021-05-12 02:54:01+00:00,233.0,2.23,230.0,2.71,12.57,47.59359,-54.27349
2021-05-12 03:04:01+00:00,238.0,2.67,251.0,3.37,12.57,47.59359,-54.27349
2021-05-12 03:14:01+00:00,240.0,1.42,252.0,2.06,12.57,47.59359,-54.27349
2021-05-12 03:24:01+00:00,189.0,1.3,193.0,1.71,12.57,47.59359,-54.27349
2021-05-12 03:34:01+00:00,232.0,2.3,233.0,3.56,12.57,47.59359,-54.27349
2021-05-12 03:44:01+00:00,226.0,2.86,229.0,3.4,12.57,47.59359,-54.27349
2021-05-12 03:54:01+00:00,212.0,2.31,210.0,2.53,12.57,47.59359,-54.27349
2021-05-12 04:04:01+00:00,194.0,2.07,193.0,2.42,12.57,47.59359,-54.27349
2021-05-12 04:14:01+00:00,190.0,2.15,199.0,2.83,12.49,47.59359,-54.27349
2021-05-12 04:24:01+00:00,258.0,0.81,219.0,1.59,12.49,47.59359,-54.27349
2021-05-12 04:34:01+00:00,17.0,2.06,14.0,2.52,12.49,47.59359,-54.27349
2021-05-12 04:44:01+00:00,343.0,1.14,338.0,1.39,12.49,47.59359,-54.27349
2021-05-12 04:54:01+00:00,262.0,0.68,265.0,1.07,12.49,47.59359,-54.27349
2021-05-12 05:04:01+00:00,172.0,0.6,182.0,0.93,12.49,47.59359,-54.27349
2021-05-12 05:14:00+00:00,159.0,1.43,169.0,2.19,12.49,47.59359,-54.27349
2021-05-12 05:24:00+00:00,244.0,1.22,274.0,1.6,12.49,47.59359,-54.27349
2021-05-12 05:34:00+00:00,225.0,1.32,217.0,1.53,12.49,47.59359,-54.27349
2021-05-12 05:44:00+00:00,276.0,1.69,266.0,2.6,12.49,47.59359,-54.27349
2021-05-12 05:54:00+00:00,302.0,4.47,302.0,5.35,12.49,47.59359,-54.27349
2021-05-12 06:04:00+00:00,300.0,7.37,305.0,8.87,12.49,47.59359,-54.27349
2021-05-12 06:14:01+00:00,301.0,7.32,298.0,8.08,12.49,47.59359,-54.27349
2021-05-12 06:24:01+00:00,301.0,7.98,295.0,8.76,12.49,47.59359,-54.27349
2021-05-12 06:34:01+00:00,299.0,7.96,301.0,8.79,12.49,47.59359,-54.27349
2021-05-12 06:44:01+00:00,299.0,8.18,301.0,9.49,12.49,47.59359,-54.27349
2021-05-12 06:54:01+00:00,307.0,8.33,307.0,9.78,12.49,47.59359,-54.27349
2021-05-12 07:04:01+00:00,299.0,8.2,298.0,8.96,12.49,47.59359,-54.27349
2021-05-12 07:14:00+00:00,305.0,7.61,306.0,8.91,12.41,47.59359,-54.27349
2021-05-12 07:24:00+00:00,304.0,7.08,306.0,8.31,12.41,47.59359,-54.27349
2021-05-12 07:34:00+00:00,302.0,7.3,307.0,8.13,12.41,47.59359,-54.27349
2021-05-12 07:44:00+00:00,299.0,8.19,304.0,8.82,12.41,47.59359,-54.27349
2021-05-12 07:54:00+00:00,298.0,7.36,305.0,8.44,12.41,47.59359,-54.27349
2021-05-12 08:04:00+00:00,298.0,7.76,298.0,8.4,12.41,47.59359,-54.27349
2021-05-12 08:14:00+00:00,299.0,8.2,302.0,9.26,12.41,47.59359,-54.27349
2021-05-12 08:24:00+00:00,306.0,8.56,302.0,9.69,12.41,47.59359,-54.27349
2021-05-12 08:34:00+00:00,311.0,7.67,312.0,8.51,12.41,47.59359,-54.27349
2021-05-12 08:44:00+00:00,306.0,6.85,310.0,7.89,12.41,47.59359,-54.27349
2021-05-12 08:54:00+00:00,300.0,7.89,302.0,8.7,12.41,47.59359,-54.27349
2021-05-12 09:04:00+00:00,295.0,7.04,297.0,7.44,12.41,47.59359,-54.27349
2021-05-12 09:14:01+00:00,290.0,5.43,286.0,6.37,12.65,47.59359,-54.27349
2021-05-12 09:24:01+00:00,290.0,6.48,284.0,7.38,12.65,47.59359,-54.27349
2021-05-12 09:34:01+00:00,291.0,6.3,283.0,7.34,12.65,47.59359,-54.27349
2021-05-12 09:44:01+00:00,301.0,6.17,305.0,7.67,12.65,47.59359,-54.27349
2021-05-12 09:54:01+00:00,312.0,7.14,311.0,8.49,12.65,47.59359,-54.27349
2021-05-12 10:04:01+00:00,306.0,5.4,311.0,6.45,12.65,47.59359,-54.27349
2021-05-12 10:14:01+00:00,289.0,4.94,289.0,5.63,13.44,47.59359,-54.27349
2021-05-12 10:24:01+00:00,287.0,5.4,291.0,5.9,13.44,47.59359,-54.27349
2021-05-12 10:34:01+00:00,281.0,7.3,283.0,7.88,13.44,47.59359,-54.27349
2021-05-12 10:44:01+00:00,277.0,6.42,282.0,6.96,13.44,47.59359,-54.27349
2021-05-12 10:54:01+00:00,284.0,5.62,284.0,6.14,13.44,47.59359,-54.27349
2021-05-12 11:04:01+00:00,290.0,5.47,291.0,5.88,13.44,47.59359,-54.27349
2021-05-12 11:14:01+00:00,305.0,4.79,302.0,5.56,13.68,47.59359,-54.27349
2021-05-12 11:24:01+00:00,306.0,7.0,308.0,8.03,13.68,47.59359,-54.27349
2021-05-12 11:34:01+00:00,316.0,6.38,319.0,7.57,13.68,47.59359,-54.27349
2021-05-12 11:44:01+00:00,310.0,5.91,308.0,6.59,13.68,47.59359,-54.27349
2021-05-12 11:54:01+00:00,299.0,4.03,300.0,5.08,13.68,47.59359,-54.27349
2021-05-12 12:04:01+00:00,294.0,3.78,297.0,4.24,13.68,47.59359,-54.27349
2021-05-12 12:14:01+00:00,295.0,4.11,288.0,4.91,14.08,47.59359,-54.27349
2021-05-12 12:24:01+00:00,282.0,3.59,280.0,4.57,14.08,47.59359,-54.27349
2021-05-12 12:34:01+00:00,233.0,3.31,237.0,3.78,14.08,47.59359,-54.27349
2021-05-12 12:44:01+00:00,213.0,3.68,214.0,3.95,14.08,47.59359,-54.27349
2021-05-12 12:54:01+00:00,201.0,3.59,199.0,3.93,14.08,47.59359,-54.27349
2021-05-12 13:04:01+00:00,208.0,4.55,205.0,5.25,14.08,47.59359,-54.27349
2021-05-12 13:14:01+00:00,207.0,7.72,211.0,8.42,13.68,47.59359,-54.27349
2021-05-12 13:24:01+00:00,198.0,7.27,196.0,7.77,13.68,47.59359,-54.27349
2021-05-12 13:34:01+00:00,199.0,7.82,199.0,8.66,13.68,47.59359,-54.27349
2021-05-12 13:44:01+00:00,205.0,8.25,203.0,8.94,13.68,47.59359,-54.27349
2021-05-12 13:54:01+00:00,207.0,8.65,205.0,9.56,13.68,47.59359,-54.27349
2021-05-12 14:04:01+00:00,206.0,7.75,207.0,8.78,13.68,47.59359,-54.27349
2021-05-12 14:14:01+00:00,203.0,8.25,205.0,9.32,13.92,47.59359,-54.27349
2021-05-12 14:24:01+00:00,209.0,9.84,214.0,10.75,13.92,47.59359,-54.27349
2021-05-12 14:34:01+00:00,208.0,9.45,210.0,10.72,13.92,47.59359,-54.27349
2021-05-12 14:44:01+00:00,208.0,9.9,213.0,11.0,13.92,47.59359,-54.27349
2021-05-12 14:54:01+00:00,209.0,10.01,211.0,11.64,13.92,47.59359,-54.27349
2021-05-12 15:04:01+00:00,209.0,10.85,214.0,11.94,13.92,47.59359,-54.27349
2021-05-12 15:14:01+00:00,212.0,9.99,215.0,11.65,13.84,47.59359,-54.27349
2021-05-12 15:24:01+00:00,212.0,11.55,213.0,12.82,13.84,47.59359,-54.27349
2021-05-12 15:34:01+00:00,207.0,9.74,208.0,11.34,13.84,47.59359,-54.27349
2021-05-12 15:44:01+00:00,208.0,10.35,211.0,11.38,13.84,47.59359,-54.27349
2021-05-12 15:54:01+00:00,209.0,10.47,211.0,11.74,13.84,47.59359,-54.27349
2021-05-12 16:04:01+00:00,209.0,11.93,212.0,13.38,13.84,47.59359,-54.27349
2021-05-12 16:14:01+00:00,212.0,12.12,213.0,13.8,14.24,47.59359,-54.27349
2021-05-12 16:24:01+00:00,209.0,11.06,210.0,12.48,14.24,47.59359,-54.27349
2021-05-12 16:34:01+00:00,211.0,12.67,208.0,14.85,14.24,47.59359,-54.27349
2021-05-12 16:44:01+00:00,210.0,11.75,209.0,13.81,14.24,47.59359,-54.27349
2021-05-12 16:54:01+00:00,212.0,12.0,212.0,13.48,14.24,47.59359,-54.27349
2021-05-12 17:04:01+00:00,210.0,11.81,205.0,13.78,14.24,47.59359,-54.27349
2021-05-12 17:14:01+00:00,211.0,11.25,215.0,13.03,14.16,47.59359,-54.27349
2021-05-12 17:24:01+00:00,207.0,11.57,211.0,12.58,14.16,47.59359,-54.27349
2021-05-12 17:34:01+00:00,207.0,10.37,205.0,11.91,14.16,47.59359,-54.27349
2021-05-12 17:44:01+00:00,208.0,10.68,210.0,12.03,14.16,47.59359,-54.27349
2021-05-12 17:54:01+00:00,208.0,10.78,213.0,12.37,14.16,47.59359,-54.27349
2021-05-12 18:04:01+00:00,210.0,11.43,210.0,12.63,14.16,47.59359,-54.27349
2021-05-12 18:14:01+00:00,210.0,11.25,207.0,12.5,13.84,47.59359,-54.27349
2021-05-12 18:24:01+00:00,212.0,10.58,214.0,11.83,13.84,47.59359,-54.27349
2021-05-12 18:34:01+00:00,211.0,10.82,214.0,12.12,13.84,47.59359,-54.27349
2021-05-12 18:44:01+00:00,213.0,9.75,216.0,11.05,13.84,47.59359,-54.27349
2021-05-12 18:54:01+00:00,214.0,9.6,218.0,10.82,13.84,47.59359,-54.27349
2021-05-12 19:04:01+00:00,215.0,8.64,219.0,10.46,13.84,47.59359,-54.27349
2021-05-12 19:14:01+00:00,208.0,9.46,210.0,10.3,13.84,47.59359,-54.27349
2021-05-12 19:24:01+00:00,209.0,10.09,208.0,10.88,13.84,47.59359,-54.27349
2021-05-12 19:34:01+00:00,213.0,9.56,216.0,10.6,13.84,47.59359,-54.27349
2021-05-12 19:44:01+00:00,212.0,9.38,214.0,10.32,13.84,47.59359,-54.27349
2021-05-12 19:54:01+00:00,209.0,8.41,213.0,9.77,13.84,47.59359,-54.27349
2021-05-12 20:04:01+00:00,212.0,9.27,203.0,10.31,13.84,47.59359,-54.27349
2021-05-12 20:14:01+00:00,210.0,9.89,209.0,10.87,13.84,47.59359,-54.27349
2021-05-12 20:24:01+00:00,212.0,9.78,214.0,11.03,13.84,47.59359,-54.27349
2021-05-12 20:34:01+00:00,212.0,9.82,212.0,10.89,13.84,47.59359,-54.27349
2021-05-12 20:44:01+00:00,214.0,8.96,215.0,10.82,13.84,47.59359,-54.27349
2021-05-12 20:54:01+00:00,234.0,7.42,234.0,8.36,13.84,47.59359,-54.27349
2021-05-12 21:04:01+00:00,232.0,8.19,232.0,8.86,13.84,47.59359,-54.27349
2021-05-12 21:14:01+00:00,222.0,6.92,234.0,9.15,13.76,47.59359,-54.27349
2021-05-12 21:24:01+00:00,225.0,7.29,225.0,9.12,13.76,47.59359,-54.27349
2021-05-12 21:34:01+00:00,216.0,6.37,212.0,7.4,13.76,47.59359,-54.27349
2021-05-12 21:44:01+00:00,218.0,6.62,215.0,7.76,13.76,47.59359,-54.27349
2021-05-12 21:54:01+00:00,227.0,6.65,235.0,7.83,13.76,47.59359,-54.27349
2021-05-12 22:04:01+00:00,212.0,7.69,213.0,8.29,13.76,47.59359,-54.27349
2021-05-12 22:14:01+00:00,215.0,6.49,213.0,7.11,13.68,47.59359,-54.27349
2021-05-12 22:24:01+00:00,215.0,6.61,218.0,7.25,13.68,47.59359,-54.27349
2021-05-12 22:34:01+00:00,217.0,7.15,216.0,8.0,13.68,47.59359,-54.27349
2021-05-12 22:44:01+00:00,220.0,5.77,216.0,6.93,13.68,47.59359,-54.27349
2021-05-12 22:54:01+00:00,221.0,6.0,219.0,6.77,13.68,47.59359,-54.27349
2021-05-12 23:04:01+00:00,226.0,5.17,226.0,6.32,13.68,47.59359,-54.27349
2021-05-12 23:14:00+00:00,231.0,5.09,229.0,5.71,13.13,47.59359,-54.27349
2021-05-12 23:24:00+00:00,241.0,5.89,246.0,6.64,13.13,47.59359,-54.27349
2021-05-12 23:34:00+00:00,231.0,6.23,236.0,7.02,13.13,47.59359,-54.27349
2021-05-12 23:44:00+00:00,237.0,6.56,238.0,7.17,13.13,47.59359,-54.27349
2021-05-12 23:54:00+00:00,233.0,5.42,233.0,6.29,13.13,47.59359,-54.27349
